User: anonymous   Login
Location: Unspecified
(0.0000°N, 0.0000°E)
Time: 22:27:12
(UTC+00:00)
Language:

BUZZZER-1 - Orbit

View from above orbital plane
View from above orbital plane
View from above satellite
View from above satellite

Ground track
Ground track

The orbit is defined by the following mean orbital elements,

1 62609U          26145.49432866 +.00000000 +00000-0 +29396-3 0 00008
2 62609  97.3927 224.1438 0009055  62.4509 297.7646 15.21369408    01
Epoch (UTC): 25 May 2026 11:51:49
Eccentricity: 0.0009055
inclination: 97.3927°
perigee height: 495 km
apogee height: 508 km
right ascension of ascending node: 224.1438°
argument of perigee: 62.4509°
revolutions per day: 15.21369408
mean anomaly at epoch: 297.7646°

The dashed part of the orbit path shows where the satellite is in the earth's shadow,  

DLR